This is the latest recevied weather packets stored in our database for station/object KG7MRB. If no packets are shown the sender has not sent any weather packets the latest 10 day(s).
| Time | Temp. | Humidity | Pressure | Rain* | Wind** | Luminosity | Snow |
|---|---|---|---|---|---|---|---|
| 1777518034 | 15.56° C | 72% | 1040.4 hPa | 0 mm | - | 12 W/m² | - |
| 1777517731 | 15.56° C | 70% | 1040.5 hPa | 0 mm | - | 14 W/m² | - |
| 1777517427 | 16.11° C | 69% | 1040.5 hPa | 0 mm | - | 16 W/m² | - |
| 1777517126 | 16.67° C | 67% | 1040.4 hPa | 0 mm | - | 19 W/m² | - |
| 1777516823 | 16.67° C | 66% | 1040.5 hPa | 0 mm | - | 21 W/m² | - |
| 1777516520 | 16.67° C | 65% | 1040.6 hPa | 0 mm | - | 23 W/m² | - |
| 1777516215 | 17.22° C | 65% | 1040.5 hPa | 0 mm | - | 25 W/m² | - |
| 1777515912 | 17.22° C | 65% | 1040.6 hPa | 0 mm | - | 27 W/m² | - |
| 1777515609 | 17.22° C | 65% | 1040.7 hPa | 0 mm | - | 29 W/m² | - |
| 1777515306 | 17.22° C | 65% | 1040.5 hPa | 0 mm | - | 31 W/m² | - |
| 1777515002 | 17.78° C | 65% | 1040.5 hPa | 0 mm | - | 33 W/m² | - |
| 1777514698 | 17.78° C | 65% | 1040.7 hPa | 0 mm | - | 36 W/m² | - |
| 1777514395 | 17.78° C | 65% | 1040.5 hPa | 0 mm | - | 39 W/m² | - |
| 1777514092 | 18.33° C | 64% | 1040.6 hPa | 0 mm | - | 37 W/m² | - |
| 1777513789 | 18.33° C | 63% | 1040.5 hPa | 0 mm | - | 39 W/m² | - |
| 1777513486 | 18.33° C | 63% | 1040.4 hPa | 0 mm | - | 40 W/m² | - |
| 1777513183 | 18.89° C | 63% | 1040.5 hPa | 0 mm | - | 40 W/m² | - |
| 1777512879 | 18.89° C | 63% | 1040.4 hPa | 0 mm | - | 42 W/m² | - |
| 1777512576 | 18.89° C | 63% | 1040.4 hPa | 0 mm | - | 42 W/m² | - |
| 1777512272 | 18.89° C | 62% | 1040.5 hPa | 0 mm | - | 49 W/m² | - |
| 1777511969 | 18.89° C | 62% | 1040.7 hPa | 0 mm | - | 45 W/m² | - |
| 1777511667 | 18.89° C | 61% | 1040.6 hPa | 0 mm | - | 48 W/m² | - |
| 1777511365 | 18.89° C | 62% | 1040.5 hPa | 0 mm | - | 49 W/m² | - |
| 1777510756 | 18.89° C | 62% | 1040.4 hPa | 0 mm | - | 52 W/m² | - |
| 1777510454 | 18.89° C | 62% | 1040.5 hPa | 0 mm | - | 60 W/m² | - |
* Rain latest hour (hover to see other rain measurements)
** Current wind speed in m/s (hover to see current wind gust speed)